Hourly Weather Roundup
Issued by NWS Central Illinois

Home | Current Version | Previous Version | Graphics & Text | Print | Product List | Glossary On
Versions: 1 2 3 4 5 6 7 8 9 10 11 12 13 14 15 16 17 18 19 20 21 22 23 24 25 26 27 28 29 30 31 32 33 34 35 36 37 38 39 40 41 42 43 44 45 46 47 48 49 50
000
NZUS43 KILX 232110
HWRILX

AREA WEATHER ROUNDUP
NATIONAL WEATHER SERVICE, LINCOLN IL
400 PM CDT WED JUL 23 2014


CITY           SKY/WX    TMP DP  RH WIND       PRES   REMARKS
BLOOMINGTON    MOSUNNY   32  32 100 NE18      30.12F WCI  20
CHAMPAIGN      SUNNY     76  60  57 N20G25    30.07F
DECATUR        SUNNY     82  61  47 N14       30.09S HX  83
FLORA          PTSUNNY   74  68  82 N3        30.04S
GALESBURG      MOSUNNY   79  59  50 N15       30.14F HX  80
JACKSONVILLE   PTSUNNY   80  64  57 N10       30.12S HX  81
LACON          MOSUNNY   79  57  47 N8        30.11F
LAWRENCEVILLE  CLOUDY    77  71  82 N13       30.01F
LITCHFIELD     MOSUNNY   80  64  57 N17       30.08S HX  81
$$


CITY           SKY/WX    TMP DP  RH WIND       PRES   REMARKS
LINCOLN        MOSUNNY   80  58  48 NE16      30.07S HX  80
MACOMB         SUNNY     78  59  52 NE12      30.15F
MATTOON        SUNNY     79  63  57 N15       30.04F HX  80
MT CARMEL AP   CLOUDY    81  73  78 NW8       30.00F HX  85
OLNEY-NOBLE AP CLOUDY    73  68  83 N6        30.03F
PARIS          PTSUNNY   77  65  65 N9G20     30.05F
PEORIA         MOSUNNY   82  57  42 N9        30.12S HX  82
PONTIAC        MOSUNNY   77  57  50 NE15      30.11S
RANTOUL        SUNNY     78  52  40 N21       30.10S
ROBINSON       CLOUDY    75  69  84 N7        30.03F
SPRINGFIELD    PTSUNNY   80  61  52 NE14      30.10S HX  81
TAYLORVILLE    MOSUNNY   77  61  57 NE14      30.08S
$$

...REGIONAL REPORTS...


CITY           SKY/WX    TMP DP  RH WIND       PRES   REMARKS
CHICAGO O`HARE MOSUNNY   72  49  44 NE16      30.14F
KANKAKEE       SUNNY     73  54  51 N16G22    30.12S
MOLINE         MOSUNNY   80  56  43 N8        30.14F HX  80
MOUNT VERNON   CLOUDY    73  66  78 N5        30.04S
PITTSFIELD     SUNNY     81  63  53 NE9       30.11S HX  82
QUINCY         MOSUNNY   80  62  54 NE16      30.11F HX  81
ROCKFORD       PTSUNNY   76  52  43 N16G22    30.16F
$$


CITY           SKY/WX    TMP DP  RH WIND       PRES   REMARKS
BURLINGTON     MOSUNNY   79  57  46 NE14      30.14F HX  80
CEDAR RAPIDS   PTSUNNY   78  54  43 NE5       30.17F
DES MOINES     MOSUNNY   83  58  42 NE7       30.17S HX  83
KIRKSVILLE     SUNNY     83  62  49 NE14      30.13F HX  84
OTTUMWA        MOSUNNY   80  57  45 NE9       30.15F HX  80
ST LOUIS       MOSUNNY   84  68  58 N9        30.07S HX  87
$$


CITY           SKY/WX    TMP DP  RH WIND       PRES   REMARKS
TERRE HAUTE    CLOUDY    74  68  81 N5        30.03F
EVANSVILLE     CLOUDY    81  71  71 N8        30.00F HX  85
INDIANAPOLIS   CLOUDY    72  67  84 N15       30.02S
LAFAYETTE      SUNNY     75  58  55 N16G22    30.06R
MADISON        PTSUNNY   76  55  48 NE10      30.17F
MILWAUKEE      MOSUNNY   64  54  69 NE14G23   30.18F
$$




USA.gov is the U.S. government's official web portal to all federal, state and local government web resources and services.